QTR3E LIRF-OTHH

Flight info

Callsign QTR3E
Flight time N/A
Altitude 41000
Route SIPRO DCT TEA DCT LUNAR DCT UPLAD DCT ALIXI DCT DINOB DCT SALUN N705 MMA P751 DASUM Y234 FYM M872 WEJ L604 GAS DCT KINIB Z511 GISRA L681 ORLEK
Aircraft A359/H-SDE2E3GHIJ3J4J5LM1ORWXY/LB1D1

Departure

Time 2026-05-04 12:40
Airport Rome–Fiumicino Leonardo da Vinci International Airport (LIRF)

Arrival

Time N/A
Airport Hamad International Airport (OTHH)
Time Latitude Longitude Altitude Speed Heading
2026-05-04 12:19 41.79693 12.24192 20 ft 0 kts 160°
2026-05-04 12:28 41.79706 12.24186 23 ft 4 kts 160°
2026-05-04 12:28 41.79731 12.24173 24 ft 4 kts 157°
2026-05-04 12:28 41.79755 12.24158 25 ft 4 kts 143°
2026-05-04 12:29 41.79770 12.24135 25 ft 4 kts 87°
2026-05-04 12:29 41.79773 12.24142 24 ft 4 kts 70°
2026-05-04 12:29 41.79783 12.24176 22 ft 4 kts 70°
2026-05-04 12:29 41.79789 12.24200 20 ft 0 kts 70°
2026-05-04 12:33 41.79793 12.24213 20 ft 7 kts 70°
2026-05-04 12:33 41.79833 12.24282 23 ft 10 kts 16°
2026-05-04 12:33 41.79906 12.24261 25 ft 12 kts 340°
2026-05-04 12:34 41.80002 12.24224 23 ft 14 kts
2026-05-04 12:34 41.80058 12.24334 21 ft 16 kts 69°
2026-05-04 12:34 41.80099 12.24479 22 ft 18 kts 70°
2026-05-04 12:34 41.80145 12.24643 24 ft 20 kts 68°
2026-05-04 12:35 41.80192 12.24817 22 ft 20 kts 72°
2026-05-04 12:35 41.80205 12.25008 20 ft 21 kts 89°
2026-05-04 12:35 41.80241 12.25196 21 ft 21 kts 70°
2026-05-04 12:35 41.80292 12.25384 24 ft 22 kts 70°
2026-05-04 12:36 41.80350 12.25588 23 ft 23 kts 69°
2026-05-04 12:36 41.80406 12.25797 24 ft 25 kts 69°
2026-05-04 12:36 41.80464 12.26007 24 ft 21 kts 70°
2026-05-04 12:36 41.80515 12.26196 25 ft 22 kts 70°
2026-05-04 12:37 41.80572 12.26395 24 ft 24 kts 69°
2026-05-04 12:37 41.80630 12.26610 25 ft 25 kts 70°
2026-05-04 12:37 41.80689 12.26823 23 ft 24 kts 69°
2026-05-04 12:37 41.80739 12.27004 21 ft 12 kts 68°
2026-05-04 12:38 41.80774 12.27117 21 ft 14 kts 54°
2026-05-04 12:38 41.80851 12.27124 21 ft 11 kts 342°
2026-05-04 12:38 41.80884 12.27107 23 ft 0 kts 339°
2026-05-04 12:39 41.80886 12.27107 19 ft 2 kts 339°
2026-05-04 12:39 41.80932 12.27083 20 ft 13 kts 339°
2026-05-04 12:39 41.80975 12.26994 23 ft 12 kts 261°
2026-05-04 12:40 41.80940 12.26862 22 ft 27 kts 249°
2026-05-04 12:40 41.80793 12.26323 27 ft 95 kts 249°
2026-05-04 12:40 41.80491 12.25226 27 ft 153 kts 249°
2026-05-04 12:40 41.80141 12.23926 762 ft 143 kts 243°
2026-05-04 12:41 41.79744 12.22708 1353 ft 150 kts 242°
2026-05-04 12:41 41.79277 12.21289 1387 ft 185 kts 240°
2026-05-04 12:41 41.78448 12.19878 1800 ft 202 kts 217°
2026-05-04 12:41 41.77346 12.18706 2601 ft 201 kts 213°
2026-05-04 12:42 41.76245 12.17571 3378 ft 201 kts 213°
2026-05-04 12:42 41.75125 12.16460 4102 ft 200 kts 211°
2026-05-04 12:42 41.73934 12.15368 4545 ft 215 kts 211°
2026-05-04 12:42 41.72605 12.14314 4967 ft 231 kts 200°
2026-05-04 12:43 41.70983 12.13902 5387 ft 246 kts 174°
2026-05-04 12:43 41.69371 12.14715 6023 ft 256 kts 142°
2026-05-04 12:43 41.68379 12.16700 6797 ft 265 kts 109°
2026-05-04 12:43 41.67962 12.19138 7502 ft 273 kts 102°
2026-05-04 12:44 41.67624 12.21660 8313 ft 278 kts 102°
2026-05-04 12:44 41.67270 12.24216 9168 ft 281 kts 103°
2026-05-04 12:44 41.66898 12.26809 10003 ft 286 kts 103°
2026-05-04 12:44 41.66507 12.29460 10627 ft 299 kts 103°
2026-05-04 12:45 41.66234 12.31298 10849 ft 313 kts 103°
2026-05-04 12:45 41.65652 12.35180 11303 ft 339 kts 103°
2026-05-04 12:45 41.65323 12.37374 11627 ft 349 kts 103°
2026-05-04 12:45 41.64837 12.40600 12255 ft 358 kts 103°
2026-05-04 12:46 41.64338 12.43884 12973 ft 364 kts 103°
2026-05-04 12:46 41.63824 12.47243 13680 ft 371 kts 103°
2026-05-04 12:46 41.63298 12.50650 14340 ft 377 kts 103°
2026-05-04 12:46 41.62764 12.54105 14867 ft 381 kts 103°
2026-05-04 12:47 41.62227 12.57599 15434 ft 386 kts 103°
2026-05-04 12:47 41.61684 12.61121 16115 ft 390 kts 102°
2026-05-04 12:47 41.61133 12.64700 16757 ft 395 kts 102°
2026-05-04 12:47 41.60573 12.68324 17408 ft 400 kts 102°
2026-05-04 12:48 41.60003 12.71978 18072 ft 404 kts 102°
2026-05-04 12:48 41.59427 12.75673 18697 ft 409 kts 102°
2026-05-04 12:48 41.58846 12.79416 19299 ft 413 kts 102°
2026-05-04 12:48 41.58258 12.83181 19933 ft 416 kts 102°
2026-05-04 12:49 41.57662 12.86978 20550 ft 420 kts 102°
2026-05-04 12:49 41.57061 12.90811 21147 ft 424 kts 102°
2026-05-04 12:49 41.56438 12.94682 21771 ft 427 kts 102°
2026-05-04 12:49 41.55813 12.98575 22375 ft 432 kts 102°
2026-05-04 12:50 41.55190 13.02465 22983 ft 436 kts 102°
2026-05-04 12:50 41.54558 13.06440 23573 ft 440 kts 102°
2026-05-04 12:50 41.53926 13.10462 24081 ft 444 kts 101°
2026-05-04 12:50 41.53290 13.14517 24545 ft 447 kts 101°
2026-05-04 12:51 41.52648 13.18581 25081 ft 450 kts 102°
2026-05-04 12:51 41.51990 13.22689 25568 ft 453 kts 101°
2026-05-04 12:51 41.51330 13.26813 26029 ft 457 kts 102°
2026-05-04 12:51 41.50653 13.30973 26517 ft 460 kts 102°
2026-05-04 12:52 41.49969 13.35157 27008 ft 464 kts 102°
2026-05-04 12:52 41.49282 13.39380 27472 ft 468 kts 102°
2026-05-04 12:52 41.48590 13.43635 27974 ft 471 kts 102°
2026-05-04 12:52 41.47894 13.47913 28448 ft 474 kts 102°
2026-05-04 12:53 41.47192 13.52226 28968 ft 476 kts 102°
2026-05-04 12:53 41.46487 13.56548 29501 ft 478 kts 102°
2026-05-04 12:53 41.45777 13.60889 29950 ft 481 kts 102°
2026-05-04 12:53 41.44984 13.65239 30337 ft 485 kts 107°
2026-05-04 12:54 41.43755 13.69359 30619 ft 489 kts 117°
2026-05-04 12:54 41.42064 13.73318 30934 ft 493 kts 122°
2026-05-04 12:54 41.40180 13.77153 31225 ft 497 kts 125°
2026-05-04 12:54 41.38200 13.80942 31537 ft 500 kts 126°
2026-05-04 12:55 41.36174 13.84741 31813 ft 504 kts 126°
2026-05-04 12:55 41.34142 13.88555 32066 ft 508 kts 126°
2026-05-04 12:55 41.32099 13.92424 32339 ft 512 kts 126°
2026-05-04 12:55 41.30091 13.96360 32618 ft 516 kts 122°
2026-05-04 12:56 41.28282 14.00491 32869 ft 519 kts 120°
2026-05-04 12:56 41.26515 14.04694 33109 ft 522 kts 119°
2026-05-04 12:56 41.24768 14.08932 33411 ft 525 kts 118°
2026-05-04 12:56 41.23017 14.13217 33661 ft 528 kts 118°
2026-05-04 12:57 41.21259 14.17520 33904 ft 531 kts 118°
2026-05-04 12:57 41.19487 14.21846 34150 ft 534 kts 118°
2026-05-04 12:57 41.17711 14.26167 34570 ft 530 kts 118°
2026-05-04 12:57 41.15949 14.30438 35010 ft 527 kts 118°
2026-05-04 12:58 41.14184 14.34705 35248 ft 528 kts 118°
2026-05-04 12:58 41.12412 14.38981 35502 ft 529 kts 118°
2026-05-04 12:58 41.10635 14.43262 35758 ft 530 kts 118°
2026-05-04 12:58 41.08856 14.47541 36020 ft 530 kts 118°
2026-05-04 12:59 41.07073 14.51823 36291 ft 531 kts 118°
2026-05-04 12:59 41.05286 14.56107 36485 ft 532 kts 118°
2026-05-04 12:59 41.03488 14.60415 36591 ft 536 kts 118°
2026-05-04 12:59 41.01685 14.64728 36850 ft 536 kts 118°
2026-05-04 13:00 40.99879 14.69041 37116 ft 536 kts 118°
2026-05-04 13:00 40.98090 14.73309 37305 ft 537 kts 118°
2026-05-04 13:00 40.96276 14.77627 37588 ft 536 kts 118°
2026-05-04 13:00 40.94444 14.81983 37878 ft 535 kts 118°
2026-05-04 13:01 40.92658 14.86225 38110 ft 535 kts 118°
2026-05-04 13:01 40.90846 14.90522 38334 ft 535 kts 118°
2026-05-04 13:01 40.89035 14.94809 38604 ft 534 kts 118°
2026-05-04 13:01 40.87226 14.99086 38863 ft 533 kts 118°
2026-05-04 13:02 40.85412 15.03369 39018 ft 533 kts 118°
2026-05-04 13:02 40.83600 15.07640 39223 ft 532 kts 118°
2026-05-04 13:02 40.81791 15.11900 39450 ft 531 kts 118°
2026-05-04 13:02 40.79990 15.16135 39641 ft 530 kts 119°
2026-05-04 13:03 40.78188 15.20365 39884 ft 528 kts 119°
2026-05-04 13:03 40.76386 15.24588 40040 ft 527 kts 119°
2026-05-04 13:03 40.74586 15.28800 40168 ft 528 kts 118°
2026-05-04 13:03 40.72778 15.33030 40272 ft 528 kts 118°
2026-05-04 13:04 40.70974 15.37243 40447 ft 527 kts 119°
2026-05-04 13:04 40.69095 15.41383 40588 ft 526 kts 124°
2026-05-04 13:04 40.66977 15.45316 40690 ft 526 kts 126°
2026-05-04 13:04 40.64802 15.49191 40813 ft 526 kts 127°
2026-05-04 13:05 40.62599 15.53032 40945 ft 525 kts 127°
2026-05-04 13:05 40.60384 15.56854 41085 ft 525 kts 128°
2026-05-04 13:05 40.58192 15.60626 41154 ft 525 kts 128°
2026-05-04 13:06 40.53756 15.68257 41157 ft 525 kts 127°
2026-05-04 13:06 40.49322 15.75893 41146 ft 525 kts 127°
2026-05-04 13:07 40.44892 15.83513 41140 ft 526 kts 127°
2026-05-04 13:07 40.40449 15.91140 41141 ft 526 kts 127°
2026-05-04 13:08 40.35998 15.98761 41133 ft 526 kts 127°
2026-05-04 13:08 40.31544 16.06367 41133 ft 526 kts 128°
2026-05-04 13:09 40.27090 16.13957 41124 ft 526 kts 128°
2026-05-04 13:09 40.22622 16.21543 41114 ft 526 kts 128°
2026-05-04 13:10 40.18069 16.29032 41111 ft 526 kts 129°
2026-05-04 13:10 40.13457 16.36385 41135 ft 527 kts 129°
2026-05-04 13:11 40.08814 16.43791 41119 ft 527 kts 129°
2026-05-04 13:11 40.04190 16.51192 41107 ft 526 kts 129°
2026-05-04 13:12 39.99561 16.58601 41109 ft 526 kts 129°
2026-05-04 13:12 39.94935 16.65988 41107 ft 526 kts 129°
2026-05-04 13:13 39.90299 16.73373 41105 ft 526 kts 129°
2026-05-04 13:13 39.85685 16.80704 41108 ft 526 kts 129°
2026-05-04 13:14 39.81034 16.88076 41108 ft 527 kts 129°
2026-05-04 13:14 39.76383 16.95430 41108 ft 527 kts 129°
2026-05-04 13:15 39.71726 17.02778 41112 ft 527 kts 129°
2026-05-04 13:15 39.67062 17.10119 41113 ft 527 kts 129°
2026-05-04 13:16 39.62394 17.17450 41115 ft 527 kts 130°
2026-05-04 13:16 39.57721 17.24771 41116 ft 527 kts 129°
2026-05-04 13:17 39.53039 17.32090 41114 ft 527 kts 130°
2026-05-04 13:17 39.48350 17.39401 41116 ft 528 kts 130°
2026-05-04 13:18 39.44009 17.47046 41119 ft 527 kts 121°
2026-05-04 13:18 39.40205 17.55134 41115 ft 527 kts 120°
2026-05-04 13:19 39.36485 17.63293 41118 ft 527 kts 120°
2026-05-04 13:19 39.32765 17.71447 41118 ft 527 kts 120°
2026-05-04 13:20 39.30899 17.75513 41133 ft 527 kts 120°